星链-32555 (STARLINK-32555)

导读

STARLINK-32555是美国SpaceX公司星链星座的成员卫星,于2024年11月11日发射入轨,属于星链星座扩容组网的一部分。该卫星为低轨通信卫星,配备Ku/Ka波段通信载荷与霍尔推进器,具备自主避撞能力,服务全球高速宽带互联网覆盖,单星设计寿命约5-7年,退役后会主动离轨再入大气层焚毁。

基本信息
目录编号:
61918
目录名称:
STARLINK-32555
国际标识:
2024-207G
轨道中心:
EARTH
卫星名称:
星链-32555
卫星全名:
星链-32555 (STARLINK-32555)
卫星状态:
在轨 (已飞行669 天)
发射日期:
2024-11-11 UTC
国别 :
美国 (US)
星等 :
--
该卫星已列入 空间交会检测服务 Space Conjunction Data Service (SCDS) ,当前飞行风险评估等级: 无高风险
轨道信息
数据来源 国际轨道数据
星历时间: 2026-09-11T21:26:29+0800
8小时前
查看轨道信息
半长轴: 6861.15km
偏心率: 0.000261
轨道倾角: 43.007°
近地点辐角 284.042°
升交点赤经 315.929°
平近点角 76.014°
近地点: 481.222km
远地点: 484.804km
周期: 94.266分钟
每日圈数: 15.275923
详细信息
固有亮度:
5
最大亮度:
2.5
卫星平台:
Starlink V1.0
覆盖范围:
全球
运营商:
太空探索技术公司
运营商所在国:
美国
制造商(研发单位):
太空探索技术公司
制造商所在国:
美国
使用方式:
暂无
卫星简介
Starlink 计划是 SpaceX 推出的全球卫星互联网项目,通过发射低轨道卫星,为全球尤其是偏远地区提供高速、低延迟的互联网服务。自 2019 年起,Starlink 已部署数千颗卫星,旨在缩小全球数字鸿沟,推动互联网普及。该项目还为军事、航空等行业提供通信支持,带来广泛经济效益。
2D轨道图
3D轨道图
轨道高度分析图
轨道倾角分析图
轨道综合分析图
查看轨道综合分析图
交会数据列表
事件ID 空间交会对象 最接近时刻(TCA) 交会距离 交会风险概率(CRP) 交会风险指数(CRI) 操作
CDM_260912-215206-191806-634421
2026-09-12T
21:52:38+0000
0.611 km
远距离
7.160483E-5 中风险 0.72
CDM_260910-180205-641306-191821
2026-09-10T
18:02:26+0000
0.724 km
远距离
5.053899E-5 中风险 0.69
CDM_260914-053306-191806-697721
2026-09-14T
05:33:41+0000
1.006 km
极远距离
1.698662E-5 中风险 0.6
CDM_260910-193605-641306-191821
2026-09-10T
19:36:35+0000
1.108 km
极远距离
1.216451E-5 中风险 0.57
CDM_260912-065806-191806-634421
2026-09-12T
06:58:12+0000
1.059 km
极远距离
1.209641E-5 中风险 0.57
CDM_260912-201806-191806-634421
2026-09-12T
20:18:29+0000
1.412 km
极远距离
4.544557E-6 低风险 0.48
CDM_260912-083206-191806-634421
2026-09-12T
08:32:21+0000
1.427 km
极远距离
4.399984E-6 低风险 0.48
CDM_260912-232606-191806-634421
2026-09-12T
23:26:47+0000
1.985 km
极远距离
1.700419E-6 低风险 0.4
CDM_260910-162805-641306-191821
2026-09-10T
16:28:17+0000
2.157 km
极远距离
1.615305E-6 低风险 0.39
CDM_260912-052406-191806-634421
2026-09-12T
05:24:03+0000
2.130 km
极远距离
1.444095E-6 低风险 0.38
与全量物体交会距离演化趋势
与全量物体交会风险概率演化趋势